Date,TemperatureHighF,TemperatureAvgF,TemperatureLowF,DewpointHighF,DewpointAvgF,DewpointLowF,HumidityHigh,HumidityAvg,HumidityLow,PressureMaxIn,PressureMinIn,WindSpeedMaxMPH,WindSpeedAvgMPH,GustSpeedMaxMPH,PrecipitationSumIn
2013-1-1,39.0,23.9,11.3,13.5,0.9,-11.1,45,37,26,30.29,30.14,8,2,9,0.08
2013-1-2,45.9,23.8,9.7,16.6,-0.6,-12.5,48,34,25,30.23,30.08,9,3,9,0.00
2013-1-3,43.0,29.4,19.9,25.5,11.3,1.0,54,47,41,30.38,30.14,11,3,11,0.00
2013-1-4,47.7,28.1,14.9,20.3,6.5,-2.1,55,40,28,30.34,30.23,12,4,13,0.00
2013-1-5,39.7,33.3,27.1,24.7,17.5,8.6,64,52,44,30.23,30.02,12,4,12,0.04
2013-1-6,50.7,33.1,24.4,22.3,10.5,3.1,56,39,24,30.32,30.02,11,4,13,0.00
2013-1-7,51.6,35.7,23.2,23.9,12.4,5.1,52,39,26,30.32,30.08,11,3,11,0.00
2013-1-8,65.1,41.9,32.2,25.0,15.3,11.6,44,35,18,30.11,29.99,8,3,8,0.00
2013-1-9,66.6,44.4,35.6,28.8,19.9,14.7,51,39,23,30.46,30.08,8,3,8,0.00
2013-1-10,43.5,38.9,35.2,36.8,24.6,15.8,77,58,40,30.43,29.75,13,4,13,0.28
2013-1-11,64.4,53.1,43.5,51.4,38.8,32.9,84,62,36,29.78,29.64,13,4,13,0.00
2013-1-12,56.1,42.5,28.4,33.9,19.0,10.4,49,39,31,30.02,29.69,13,5,13,0.00
2013-1-13,38.7,24.7,15.6,11.6,2.9,-4.5,49,39,26,30.32,29.93,14,4,14,0.00
2013-1-14,46.9,22.3,12.9,14.9,-0.3,-5.5,46,37,23,30.49,30.32,6,1,6,0.00
2013-1-15,46.4,24.8,12.9,15.0,2.3,-5.9,50,38,28,30.40,30.14,7,1,7,0.00
2013-1-16,46.2,24.4,16.5,14.9,3.5,-1.5,47,41,28,30.14,29.93,14,3,14,0.04
2013-1-17,56.1,39.7,25.7,15.9,8.7,2.9,42,28,20,30.43,30.38,10,2,10,0.08
2013-1-18,60.8,39.8,25.5,23.7,13.8,5.6,46,35,22,30.43,29.99,14,5,15,0.00
2013-1-19,65.7,47.0,39.4,27.1,19.6,9.7,43,34,23,30.11,29.84,20,7,22,0.00
2013-1-20,40.3,26.1,19.0,11.0,0.5,-3.5,40,33,28,30.34,30.11,14,5,16,0.00
2013-1-21,30.0,17.6,12.0,-0.5,-9.3,-16.2,43,30,20,30.38,30.29,15,6,15,0.00
2013-1-22,18.7,13.7,9.3,-6.5,-12.8,-18.0,34,29,27,30.46,30.34,9,3,9,0.00
2013-1-23,48.9,28.2,14.4,13.5,1.4,-7.9,44,32,21,30.40,30.11,14,4,15,0.00
2013-1-24,32.2,20.9,13.5,-0.2,-5.4,-9.8,35,31,23,30.61,30.23,15,5,15,0.00
2013-1-25,55.8,34.3,24.3,14.4,4.5,-1.4,37,29,17,30.23,30.05,13,4,13,0.00
2013-1-26,52.3,31.2,17.2,10.7,1.9,-5.5,37,29,16,30.40,30.23,10,3,10,0.00
2013-1-27,48.6,35.3,27.3,42.7,22.9,3.2,80,62,34,30.26,29.84,13,4,14,0.08
2013-1-28,70.0,56.5,48.6,58.5,47.3,39.0,82,73,46,29.93,29.75,10,3,10,0.00
2013-1-29,62.6,57.1,43.0,53.1,47.4,33.5,73,70,64,29.75,29.43,13,3,13,1.50
2013-1-30,43.0,32.7,23.4,33.5,19.6,3.6,74,59,42,29.84,29.31,15,2,15,0.20
2013-1-31,28.6,19.7,8.2,6.6,-1.8,-14.0,45,38,33,30.38,29.84,19,3,19,0.00
2013-2-1,26.4,15.3,5.9,6.7,-7.3,-15.9,49,36,29,30.43,30.14,13,5,13,0.00
2013-2-2,43.5,29.5,23.5,13.6,7.0,2.0,47,38,28,30.17,30.02,13,4,14,0.00
2013-2-3,47.8,31.7,25.3,16.6,8.8,3.1,59,39,24,30.20,29.96,18,4,18,0.00
2013-2-4,55.0,36.3,27.7,23.1,11.6,3.5,43,36,26,29.99,29.75,13,4,13,0.00
2013-2-5,63.3,39.0,27.0,25.6,15.7,8.9,56,40,23,30.11,29.87,14,4,14,0.00
2013-2-6,64.2,41.3,26.8,31.3,17.6,9.7,61,40,21,30.20,29.99,10,3,10,0.00
2013-2-7,42.1,39.8,34.9,32.1,25.7,19.5,71,58,40,30.08,29.87,13,4,13,0.28
2013-2-8,36.9,34.1,31.1,25.4,20.4,15.1,68,57,49,30.38,30.08,11,4,11,0.00
2013-2-9,44.1,34.5,28.8,21.5,17.4,14.8,58,50,38,30.34,29.99,11,4,12,0.00
2013-2-10,67.1,46.0,36.9,54.4,31.3,16.4,84,61,24,29.99,29.43,20,6,22,0.08
2013-2-11,58.6,40.9,32.0,21.6,14.3,10.6,41,34,22,30.14,29.69,23,9,23,0.00
2013-2-12,53.8,36.2,26.2,23.7,14.2,9.6,54,41,27,30.17,29.96,6,1,6,0.00
2013-2-13,64.8,41.4,28.2,26.9,17.0,11.0,54,39,21,29.96,29.78,11,3,11,0.00
2013-2-14,63.1,44.3,35.2,26.1,19.4,13.1,52,38,24,30.11,29.75,15,5,15,0.00
2013-2-15,59.7,36.3,25.9,15.0,6.2,-2.7,42,29,14,30.29,30.08,14,5,14,0.00
2013-2-16,55.6,31.0,19.4,12.4,2.1,-3.1,39,30,15,30.29,30.17,12,4,12,0.00
2013-2-17,55.0,34.2,20.8,17.6,9.3,2.8,48,36,20,30.17,29.84,16,5,16,0.00
2013-2-18,56.5,42.2,28.8,35.4,22.6,8.5,54,46,36,29.90,29.49,20,6,20,0.16
2013-2-19,36.9,24.9,19.2,8.5,2.2,-3.3,43,37,27,30.32,29.90,20,8,20,0.00
2013-2-20,28.4,21.2,11.8,3.1,-2.2,-9.5,40,35,32,30.46,30.32,11,4,12,0.00
2013-2-21,28.6,22.8,19.2,19.7,7.7,0.7,69,52,40,30.38,29.87,17,7,17,0.00
2013-2-24,29.8,29.6,29.5,9.5,9.3,9.2,42,42,42,30.11,30.11,4,3,5,0.00
2013-2-25,46.8,35.4,25.9,25.3,15.7,8.2,52,44,34,30.11,29.81,22,5,22,0.00
2013-2-26,36.3,34.5,32.7,26.2,22.7,18.3,68,62,48,29.81,29.49,20,6,20,0.12
2013-2-27,36.7,33.0,31.1,25.7,22.5,21.1,70,65,58,29.90,29.67,10,3,10,0.12
2013-2-28,36.1,32.8,30.4,22.6,20.0,17.9,69,59,50,30.14,29.90,10,3,11,0.00
2013-3-1,39.6,31.8,28.2,23.3,16.6,10.7,64,54,40,30.29,30.11,11,4,13,0.04
2013-3-2,55.0,31.8,18.5,20.6,9.3,-2.9,53,40,21,30.34,30.26,10,3,11,0.24
2013-3-3,40.8,27.4,13.5,16.4,5.1,-4.6,49,39,31,30.26,30.05,9,2,9,0.00
2013-3-4,42.4,35.3,30.7,20.5,17.7,11.1,62,49,39,30.05,29.81,13,6,15,0.00
2013-3-5,35.6,33.1,30.2,23.1,17.1,11.5,67,52,40,30.23,29.87,15,1,16,0.00
2013-3-6,45.5,32.0,22.1,18.6,11.4,3.0,51,42,31,30.43,30.23,13,4,13,0.08
2013-3-7,54.9,35.5,21.9,21.5,13.0,3.3,52,40,26,30.46,30.38,10,4,10,0.08
2013-3-8,49.6,38.5,28.4,23.6,18.8,13.2,60,46,32,30.46,30.23,11,4,11,0.08
2013-3-9,54.3,44.7,37.9,36.5,27.4,20.2,75,52,37,30.23,29.78,12,4,14,0.39
2013-3-10,51.4,48.2,41.4,44.5,39.0,27.1,79,71,39,29.81,29.58,11,2,12,0.59
2013-3-11,41.4,34.2,32.2,34.2,24.2,13.7,76,67,46,30.02,29.73,12,2,12,0.00
2013-3-12,42.8,33.0,26.2,22.0,14.2,9.5,54,46,38,30.26,30.02,16,4,17,0.00
2013-3-13,55.6,35.4,25.0,17.1,9.0,4.7,45,34,18,30.46,30.26,15,5,15,0.00
2013-3-14,68.0,42.5,27.7,28.6,16.3,7.3,45,36,22,30.43,30.14,11,2,11,0.00
2013-3-15,62.8,48.8,34.2,34.4,25.9,16.2,53,41,30,30.14,29.69,9,2,9,0.00
2013-3-16,49.6,41.2,37.6,29.9,24.4,20.6,60,51,45,30.17,29.69,13,4,13,0.00
2013-3-17,41.4,36.8,33.3,21.9,18.1,14.8,56,47,39,30.20,29.90,16,7,16,0.00
2013-3-18,55.2,39.4,31.1,30.0,21.1,5.8,71,51,24,30.05,29.75,17,6,19,0.00
2013-3-19,51.6,36.5,26.1,12.0,6.4,1.5,38,29,19,30.26,30.05,14,5,15,0.00
2013-3-20,42.1,30.7,21.9,8.6,2.3,-3.8,41,30,21,30.34,30.20,17,6,17,0.00
2013-3-21,48.2,31.6,19.8,11.1,2.9,-2.4,39,30,19,30.20,30.05,9,3,9,0.00
2013-3-22,45.0,34.0,24.3,13.6,9.0,3.2,46,35,28,30.11,30.05,9,2,9,0.00
2013-3-23,63.7,44.8,35.4,24.5,15.7,11.2,42,32,18,30.14,29.96,14,4,14,0.00
2013-3-24,40.6,33.7,30.9,23.1,19.9,16.5,70,57,39,30.02,29.75,17,3,17,0.00
2013-3-25,38.3,32.8,29.8,24.2,19.9,13.7,73,60,41,30.26,29.90,13,5,14,0.00
2013-3-26,52.7,37.7,30.0,19.7,15.6,10.8,52,41,27,30.40,30.26,10,4,10,0.00
2013-3-27,58.5,38.8,25.0,22.8,14.2,8.0,52,38,22,30.43,30.34,8,1,8,0.98
2013-3-28,61.9,43.0,30.0,24.7,17.0,11.5,50,36,24,30.40,30.32,11,4,11,0.28
2013-3-29,72.1,50.2,35.4,32.5,23.8,17.7,53,37,19,30.34,30.26,10,3,10,0.00
2013-3-30,54.9,48.0,39.9,37.2,28.7,22.2,67,48,36,30.26,29.96,11,3,11,0.00
2013-3-31,68.4,54.2,44.2,46.7,31.6,15.8,75,47,20,30.05,29.93,15,5,15,0.00
2013-4-1,58.1,43.5,33.4,16.8,11.3,3.1,40,28,15,30.32,30.05,14,5,15,0.00
2013-4-2,61.9,40.3,27.0,17.3,9.3,5.0,43,30,14,30.40,30.32,9,2,9,0.00
2013-4-3,61.0,42.8,29.5,19.2,10.9,6.6,41,28,16,30.49,30.32,13,3,13,0.00
2013-4-4,71.4,50.1,34.3,24.0,15.7,10.9,41,27,14,30.32,30.11,8,1,8,0.00
2013-4-5,74.3,55.2,39.9,25.9,20.5,15.2,47,28,13,30.26,30.05,11,3,11,0.00
2013-4-6,72.5,61.4,51.6,36.7,27.1,20.1,36,28,21,30.05,29.73,16,6,18,0.00
2013-4-7,81.9,63.0,44.8,39.9,30.2,24.3,53,32,14,29.99,29.78,11,2,11,0.00
2013-4-8,79.0,64.9,55.8,52.3,45.7,39.7,68,51,31,29.90,29.69,13,3,15,0.55
2013-4-9,80.2,70.3,63.7,48.0,45.9,43.5,55,43,30,29.90,29.81,14,3,14,0.00
2013-4-10,68.2,55.9,50.0,51.2,41.8,33.5,73,60,42,29.96,29.69,17,5,17,0.75
2013-4-11,50.2,44.6,38.1,42.2,32.0,19.1,75,62,44,29.78,29.69,14,6,14,0.00
2013-4-12,43.5,39.7,36.9,25.3,21.9,19.6,53,49,44,30.02,29.75,13,7,13,0.00
2013-4-13,59.9,48.8,35.6,27.4,22.3,15.3,50,36,25,30.11,29.96,11,4,14,0.00
2013-4-14,80.4,62.3,47.3,40.0,33.0,27.1,53,36,17,29.96,29.61,13,5,13,0.24
2013-4-15,61.7,55.4,47.7,45.6,37.5,28.9,67,51,40,30.05,29.75,11,3,12,0.04
2013-4-16,53.8,48.4,43.7,33.2,29.4,27.0,59,48,37,30.26,30.05,13,4,13,0.35
2013-4-17,57.2,50.3,46.6,52.4,39.1,29.9,84,66,48,30.23,29.73,17,6,17,0.98
2013-4-18,62.2,52.4,38.8,59.0,45.2,19.4,89,77,45,29.84,29.55,20,6,20,1.85
2013-4-19,47.8,40.7,36.1,20.3,17.1,13.7,48,39,29,30.14,29.78,17,8,17,0.00
2013-4-20,62.4,44.8,31.6,25.1,18.0,12.9,50,35,21,31.70,30.14,8,2,8,0.00
2013-4-21,65.8,51.9,40.3,29.0,23.8,18.7,43,34,25,31.70,18.42,15,5,15,0.00
2013-4-22,72.9,60.2,47.5,32.7,26.3,22.5,38,28,17,18.42,18.42,13,3,13,0.00
2013-4-23,60.6,47.0,39.6,34.5,29.0,25.8,61,50,35,18.42,18.42,13,4,13,0.39
2013-4-24,56.8,45.2,37.0,27.5,22.0,16.1,61,42,25,18.42,18.42,13,4,13,0.00
2013-4-25,66.7,51.9,39.9,27.0,21.3,18.6,48,32,17,18.42,18.42,13,4,13,0.00
2013-4-26,63.7,55.3,48.7,33.9,28.4,19.3,41,36,29,18.42,18.42,11,4,11,0.00
2013-4-27,54.7,52.1,47.8,41.3,36.0,29.1,66,55,41,18.42,18.42,10,2,10,0.00
2013-4-28,68.7,57.4,51.4,49.8,40.9,34.4,74,56,33,18.42,18.42,9,2,9,0.00
2013-4-29,82.9,65.8,50.5,48.2,41.7,35.4,67,44,25,18.42,18.42,10,3,11,0.00
2013-4-30,88.0,75.6,66.6,46.7,41.3,33.7,48,31,15,18.42,18.42,13,4,13,0.00
2013-5-1,88.0,75.3,63.9,41.1,37.7,32.7,38,27,18,18.42,18.42,8,2,10,0.00
2013-5-2,67.3,53.2,42.3,35.1,29.6,24.6,53,41,28,18.42,18.42,15,5,15,0.12
2013-5-3,44.6,41.4,39.2,36.6,30.2,26.1,74,64,53,29.84,18.42,12,4,12,1.69
2013-5-4,53.4,48.4,44.2,43.2,39.1,36.5,76,70,62,30.02,29.75,6,1,6,0.04
2013-5-5,70.0,58.5,48.0,52.3,42.8,37.9,77,58,36,30.02,29.90,10,2,10,0.00
2013-5-6,78.4,65.0,55.6,46.6,40.0,34.4,64,43,22,30.02,29.96,15,2,15,0.00
2013-5-7,84.9,69.6,58.1,41.8,36.9,31.0,49,33,16,30.02,29.96,8,1,8,0.00
2013-5-8,81.3,67.2,55.9,43.1,38.7,35.1,52,37,20,30.02,29.93,11,1,11,0.00
2013-5-9,68.9,64.1,61.0,56.3,50.4,42.1,70,61,47,29.93,29.81,8,1,8,0.39
2013-5-10,61.0,57.0,0.0,50.4,42.2,37.9,71,58,49,29.99,29.84,9,2,9,0.00
2013-5-11,65.3,55.8,47.8,46.0,30.2,16.3,73,42,19,30.17,29.96,17,4,19,0.00
2013-5-12,64.9,51.9,41.2,25.1,19.5,15.2,39,29,18,30.23,30.11,12,2,12,0.00
2013-5-13,75.0,58.1,42.1,32.4,26.3,21.5,47,31,18,30.20,29.96,8,1,8,0.00
2013-5-14,89.6,72.9,57.7,48.2,38.7,26.7,48,31,18,29.96,29.73,14,3,15,0.00
2013-5-15,88.5,77.4,68.4,47.1,42.0,37.4,36,29,21,29.87,29.78,14,4,14,0.00
2013-5-16,86.7,74.9,67.1,53.0,47.8,42.0,51,39,25,29.90,29.81,6,1,8,0.12
2013-5-17,79.5,70.7,62.2,50.6,46.6,43.2,56,43,31,29.96,29.90,8,1,8,0.00
2013-5-18,83.5,73.5,65.7,60.0,51.6,46.0,71,49,29,29.99,29.84,9,1,9,0.00
2013-5-19,86.7,76.2,69.8,65.5,54.7,45.8,68,49,32,29.87,29.64,10,2,12,0.04
2013-5-20,82.6,71.4,63.7,54.6,49.6,44.9,68,48,30,29.81,29.64,15,2,17,1.14
2013-5-21,78.8,69.9,63.0,58.5,49.4,41.4,74,51,31,29.73,29.67,9,2,10,0.00
2013-5-22,69.8,65.5,61.5,48.3,42.7,39.1,57,44,34,29.84,29.64,10,2,10,0.00
2013-5-23,68.7,61.8,57.7,48.8,41.5,37.3,66,48,34,30.26,29.84,14,3,14,0.00
2013-5-24,69.3,60.2,51.4,37.7,33.4,28.7,56,38,23,30.43,30.26,8,2,8,0.00
2013-5-25,60.8,57.3,53.1,45.0,37.7,31.4,68,49,36,30.38,30.17,10,2,10,0.47
2013-5-26,70.5,61.6,53.8,52.7,45.6,38.0,63,56,49,30.20,29.99,11,4,13,0.00
2013-5-27,70.9,65.9,61.9,62.3,57.0,51.4,84,73,61,29.99,29.64,11,1,13,3.03
2013-5-28,76.1,70.6,65.5,65.2,59.0,52.2,79,67,57,29.96,29.67,11,1,13,1.26
2013-5-29,84.9,74.0,64.0,64.9,54.8,49.9,75,54,31,29.96,29.75,8,1,9,0.04
2013-5-30,81.9,73.2,65.1,57.9,52.9,46.3,70,50,33,29.84,29.69,13,2,13,0.79
2013-5-31,70.3,66.1,63.3,64.2,58.4,55.0,81,76,70,29.87,29.67,7,1,7,1.06
2013-6-1,75.4,68.2,63.5,64.0,54.6,42.4,81,65,32,29.87,29.69,8,2,10,0.00
2013-6-2,63.5,62.2,59.2,50.6,43.2,37.0,64,50,40,29.96,29.84,9,2,10,0.00
2013-6-3,70.2,62.9,55.2,43.1,38.9,36.0,58,42,30,29.96,29.96,8,1,8,0.00
2013-6-4,73.0,64.8,56.1,44.2,41.3,39.1,60,43,32,29.96,29.96,7,1,8,0.00
2013-6-5,76.5,69.2,59.9,52.6,47.4,43.3,65,47,34,29.96,29.96,5,1,5,0.00
2013-6-6,75.4,69.1,64.8,54.5,47.1,38.0,67,48,27,29.96,29.96,9,2,9,0.00
2013-6-7,73.0,66.0,60.3,49.0,44.2,38.7,64,47,29,29.96,29.96,8,1,9,0.00
2013-6-8,78.1,68.3,57.4,51.8,43.7,39.9,67,43,28,29.96,29.96,6,1,6,0.00
2013-6-9,72.3,68.1,63.9,55.9,48.2,40.0,64,49,36,29.96,29.96,5,0,5,0.16
2013-6-10,76.5,68.8,63.3,56.7,51.9,47.2,75,57,36,29.96,29.96,8,1,8,0.00
2013-6-11,88.2,75.9,63.7,60.1,54.6,49.7,69,50,29,29.96,29.96,6,1,6,0.00
2013-6-12,92.1,82.0,72.0,63.6,57.1,50.9,65,45,28,29.96,29.67,14,2,14,0.00
2013-6-13,83.3,75.8,68.7,56.0,45.8,37.7,63,37,20,29.75,29.75,12,2,12,0.00
2013-6-14,78.4,71.8,65.5,51.3,46.8,42.8,49,41,31,29.75,29.75,10,1,10,0.00
2013-6-15,86.0,73.8,67.6,63.1,56.5,48.3,73,56,40,29.75,29.75,8,1,8,1.97
2013-6-16,80.8,74.0,67.3,66.6,60.3,55.7,80,64,45,29.75,29.75,5,0,5,0.00
2013-6-17,82.6,75.6,68.2,66.2,57.1,50.4,76,55,33,29.75,29.75,5,0,5,0.00
2013-6-18,81.7,75.3,68.2,59.4,53.3,48.2,70,48,32,29.75,29.75,8,1,8,0.00
2013-6-19,82.2,74.2,65.1,51.8,47.3,44.6,51,39,27,29.75,29.75,6,1,6,0.00
2013-6-20,87.3,78.4,67.8,57.3,52.2,48.4,60,41,29,29.75,29.75,6,1,6,0.00
2013-6-21,89.6,81.8,73.2,62.7,58.8,53.3,63,47,35,29.75,29.75,6,1,6,0.00
2013-6-22,89.4,80.9,73.9,67.4,59.4,48.7,62,49,37,29.75,29.75,6,1,9,0.00
2013-6-23,86.4,74.2,70.3,61.2,55.6,48.7,66,53,32,29.75,29.75,12,1,19,0.39
2013-6-24,87.6,77.3,70.2,68.2,59.9,51.8,73,56,34,29.75,29.75,11,1,11,0.00
2013-6-25,87.6,81.2,75.6,63.9,61.1,59.2,61,51,41,29.75,0.00,6,1,9,0.00
2013-6-26,87.1,79.4,73.4,68.0,62.9,55.9,69,57,45,0.00,0.00,9,1,10,0.00
2013-6-27,87.1,80.2,73.4,65.6,57.9,51.7,63,48,30,0.00,0.00,9,1,9,0.00
2013-6-28,83.8,78.1,71.1,57.0,48.6,38.5,60,38,21,0.00,0.00,16,3,16,0.00
2013-6-29,75.9,70.8,66.9,55.2,49.9,43.3,63,48,32,0.00,0.00,13,2,13,0.20
2013-6-30,76.3,69.9,65.1,55.0,51.4,45.4,68,53,34,0.00,0.00,11,2,13,0.00
2013-7-1,78.4,71.0,62.6,49.0,42.0,36.3,47,36,22,0.00,0.00,10,2,10,0.00
2013-7-2,78.4,70.4,62.6,47.2,41.2,38.0,47,36,25,0.00,0.00,10,2,10,0.00
2013-7-3,80.1,72.0,64.6,49.0,46.6,44.9,54,41,30,0.00,0.00,6,0,6,0.00
2013-7-4,83.8,74.7,65.8,54.9,48.9,43.9,63,42,25,0.00,0.00,5,0,5,0.00
2013-7-5,84.4,76.6,67.6,56.8,49.5,46.9,61,40,29,0.00,0.00,5,0,8,0.00
2013-7-6,86.0,76.2,68.7,61.6,53.6,49.5,66,47,30,0.00,0.00,6,0,6,0.00
2013-7-7,88.0,79.7,71.1,57.3,53.6,49.6,53,41,31,0.00,0.00,4,0,4,0.00
2013-7-8,82.6,78.2,74.5,68.1,59.9,52.9,67,54,43,0.00,0.00,4,0,4,0.00
2013-7-9,90.7,82.7,76.6,65.8,61.3,57.5,61,50,33,0.00,0.00,6,0,6,0.00
2013-7-10,85.1,80.8,73.6,62.9,55.4,45.6,58,43,29,0.00,0.00,11,2,11,0.04
2013-7-11,82.2,74.1,65.1,55.1,47.6,42.6,58,41,25,0.00,0.00,6,1,6,0.00
2013-7-12,81.3,73.1,64.9,48.7,44.6,39.6,52,38,24,0.00,0.00,6,1,6,0.00
2013-7-13,82.2,74.1,63.9,51.6,46.6,44.1,54,39,27,0.00,0.00,7,1,7,0.00
2013-7-14,84.7,77.0,68.0,57.1,51.7,48.5,63,43,29,0.00,0.00,6,1,6,0.00
2013-7-15,86.9,79.7,72.5,65.1,58.9,54.0,66,50,36,0.00,0.00,6,1,7,0.00
2013-7-16,89.2,82.2,74.5,68.3,60.5,54.6,70,50,32,0.00,0.00,5,0,5,0.00
2013-7-17,91.0,83.3,75.4,66.3,60.4,55.0,65,48,30,0.00,0.00,4,0,5,0.00
2013-7-18,92.8,84.8,76.6,65.9,59.5,54.0,64,44,28,0.00,0.00,4,0,4,0.00
2013-7-19,93.9,85.2,76.6,62.9,55.6,47.0,58,39,21,0.00,0.00,7,1,8,0.00
2013-7-20,86.9,81.3,76.1,58.2,53.4,46.7,53,39,25,0.00,0.00,8,1,8,0.00
2013-7-21,79.9,74.7,71.6,63.6,59.5,52.3,71,60,44,0.00,0.00,4,0,4,0.16
2013-7-22,86.7,77.0,68.4,69.8,62.0,59.0,79,62,40,0.00,0.00,6,0,7,0.00
2013-7-23,82.8,76.1,70.7,59.7,51.9,46.2,59,44,31,0.00,0.00,8,2,11,0.00
2013-7-24,77.5,71.2,65.5,48.9,45.1,39.8,52,40,26,0.00,0.00,6,2,8,0.00
2013-7-25,81.0,71.2,61.3,51.9,46.4,44.1,62,43,29,0.00,0.00,5,0,5,0.00
2013-7-26,78.8,72.0,68.2,62.8,52.9,45.3,66,52,39,0.00,0.00,6,0,6,0.00
2013-7-27,71.2,66.3,61.0,46.1,39.5,33.7,57,39,26,0.00,0.00,12,2,13,0.00
2013-7-28,76.1,65.7,55.9,43.7,37.9,35.3,55,38,23,0.00,0.00,10,2,10,0.00
2013-7-29,76.6,67.6,57.9,50.2,44.1,40.4,57,44,31,0.00,0.00,4,0,5,0.00
2013-7-30,75.6,70.6,66.0,64.3,59.0,50.2,78,67,50,0.00,0.00,5,0,5,1.14
2013-7-31,75.6,71.7,68.9,62.3,59.8,55.9,75,67,52,0.00,0.00,7,1,8,0.00
2013-8-1,83.1,74.9,66.6,61.5,53.9,47.6,74,51,30,0.00,0.00,6,0,7,0.00
2013-8-2,83.1,74.4,70.3,62.5,56.3,51.7,65,54,41,0.00,0.00,5,0,5,0.00
2013-8-3,80.6,74.3,68.7,61.0,52.4,44.9,70,49,29,0.00,0.00,10,1,10,0.00
2013-8-4,79.0,71.3,63.1,52.3,48.2,45.3,60,45,31,0.00,0.00,5,1,5,0.00
2013-8-5,79.2,72.4,65.8,58.6,54.9,48.6,63,55,47,0.00,0.00,4,0,4,0.00
2013-8-6,85.8,76.9,69.4,71.4,62.1,58.1,80,62,42,0.00,0.00,5,0,5,0.00
2013-8-7,83.5,77.1,73.2,71.4,64.2,56.6,76,65,53,0.00,0.00,6,0,6,0.24
2013-8-8,79.2,73.0,66.9,62.4,58.0,54.3,69,60,48,0.00,0.00,6,0,6,0.00
2013-8-9,79.7,74.1,69.3,59.2,56.4,51.0,68,55,38,0.00,0.00,4,0,4,0.00
2013-8-10,80.2,73.7,67.6,59.2,50.0,43.1,63,45,28,0.00,0.00,9,1,9,0.00
2013-8-11,82.8,73.2,63.5,54.3,50.2,47.3,64,46,31,0.00,0.00,4,0,6,0.00
2013-8-12,81.0,74.3,68.9,61.6,55.9,51.4,61,53,43,0.00,0.00,8,1,8,0.00
2013-8-13,76.8,70.0,64.0,55.4,48.3,40.1,60,48,29,0.00,0.00,8,1,8,0.00
2013-8-14,73.9,65.4,55.9,45.5,40.1,36.4,59,41,26,0.00,0.00,6,0,6,0.00
2013-8-15,73.4,66.2,60.1,48.7,43.5,40.1,60,45,31,0.00,0.00,5,0,5,0.00
2013-8-16,76.5,68.9,62.2,50.9,45.3,42.5,59,44,30,0.00,0.00,8,1,8,0.00
2013-8-17,78.1,69.0,58.5,53.4,45.1,41.1,65,44,27,0.00,0.00,8,1,8,0.00
2013-8-18,80.8,70.8,59.7,53.9,47.6,44.0,65,45,31,0.00,0.00,5,1,5,0.00
2013-8-19,84.2,74.6,64.8,59.5,51.6,48.4,67,46,30,0.00,0.00,5,0,5,0.00
2013-8-20,87.1,76.9,68.7,61.1,53.0,49.1,62,45,28,0.00,0.00,4,0,5,0.00
2013-8-21,88.7,78.9,69.6,59.7,53.8,50.6,64,44,28,0.00,0.00,5,0,5,0.00
2013-8-22,84.7,78.3,71.4,63.4,58.5,53.6,65,51,41,0.00,0.00,8,1,8,0.00
2013-8-23,86.5,78.1,70.3,63.8,57.1,51.8,69,51,31,0.00,0.00,7,1,7,0.00
2013-8-24,87.3,78.4,69.1,62.3,55.9,52.0,67,48,31,0.00,0.00,6,1,6,0.00
2013-8-25,89.6,80.0,71.4,59.7,53.0,48.7,59,41,25,0.00,0.00,6,1,6,0.00
2013-8-26,92.1,81.3,70.9,65.6,55.7,51.3,67,43,27,0.00,0.00,5,1,5,0.00
2013-8-27,95.0,83.2,74.1,64.3,52.6,42.4,65,39,18,0.00,0.00,8,2,8,0.00
2013-8-28,96.3,84.1,74.3,56.6,51.7,46.4,48,34,20,0.00,0.00,7,2,10,0.00
2013-8-29,93.2,83.0,73.6,64.0,55.9,51.0,56,41,28,0.00,0.00,8,1,8,0.00
2013-8-30,99.0,86.3,76.8,67.8,59.1,50.3,69,44,20,0.00,0.00,6,1,6,0.00
2013-8-31,94.6,85.3,78.3,61.5,57.4,53.7,53,40,27,0.00,0.00,8,1,8,0.00
2013-9-1,89.4,79.7,72.1,67.7,55.5,44.0,72,46,25,0.00,0.00,9,2,10,0.00
2013-9-2,83.7,73.8,66.4,52.2,45.0,37.9,54,37,21,0.00,0.00,8,2,10,0.00
2013-9-3,82.6,69.4,58.8,50.8,42.3,38.9,59,39,23,0.00,0.00,6,1,6,0.00
2013-9-4,87.1,72.8,60.4,51.8,43.3,38.2,60,37,19,0.00,0.00,5,0,5,0.00
2013-9-5,88.3,76.1,65.7,51.8,46.8,43.0,54,37,21,0.00,0.00,6,1,6,0.00
2013-9-6,90.3,77.5,66.2,56.2,47.3,41.7,59,37,19,0.00,0.00,5,0,8,0.00
2013-9-7,93.7,77.4,67.1,55.7,49.9,44.8,56,40,19,0.00,0.00,6,1,6,0.00
2013-9-8,87.6,79.8,72.9,64.3,57.9,50.4,68,48,35,0.00,0.00,8,1,10,0.00
2013-9-9,99.7,84.7,73.9,64.6,55.5,44.6,67,41,16,0.00,0.00,6,1,8,0.00
2013-9-10,98.1,84.2,73.8,59.4,50.1,43.2,48,33,16,0.00,0.00,7,1,8,0.00
2013-9-11,97.7,83.3,73.4,57.8,49.4,42.8,52,33,16,0.00,0.00,7,1,8,0.00
2013-9-12,85.3,75.1,67.6,63.0,50.2,32.7,70,46,18,0.00,0.00,10,2,12,0.16
2013-9-13,78.8,66.2,58.1,42.9,36.1,28.8,48,34,18,30.17,0.00,8,1,9,0.00
2013-9-14,77.4,63.1,52.0,39.2,33.7,31.2,53,35,21,0.00,0.00,6,1,6,0.00
2013-9-15,71.8,65.6,61.2,54.3,43.5,32.6,62,46,33,0.00,0.00,8,1,8,0.04
2013-9-16,70.7,63.5,59.5,49.7,44.7,39.2,65,52,34,0.00,0.00,9,2,10,0.00
2013-9-17,67.5,61.8,55.6,53.9,47.0,40.8,65,59,50,0.00,0.00,6,1,6,0.00
2013-9-18,89.1,74.0,64.0,62.1,55.1,51.6,73,54,30,0.00,0.00,6,1,6,0.00
2013-9-19,94.5,80.6,72.1,59.5,55.5,51.8,59,44,24,0.00,0.00,12,2,13,0.47
2013-9-20,76.1,68.6,60.3,60.4,50.8,38.7,74,55,28,0.00,0.00,9,2,9,0.08
2013-9-21,79.5,62.4,54.3,42.5,38.9,33.6,58,44,22,0.00,0.00,8,2,10,0.00
2013-9-22,81.1,62.0,52.0,46.1,38.9,35.1,64,44,21,0.00,0.00,8,1,8,0.00
2013-9-23,79.7,63.9,52.7,45.2,38.4,34.7,62,41,23,0.00,0.00,8,2,9,0.00
2013-9-24,77.2,66.2,55.2,48.4,42.4,35.0,62,43,32,0.00,0.00,11,2,11,0.00
2013-9-25,84.0,69.6,60.1,51.5,46.3,43.4,56,45,29,0.00,0.00,6,1,8,0.00
2013-9-26,89.8,71.7,60.6,56.5,46.6,43.2,64,43,21,0.00,0.00,6,1,7,0.00
2013-9-27,88.2,72.4,62.8,53.0,44.7,38.9,58,39,20,0.00,0.00,11,1,11,0.00
2013-9-28,76.6,69.4,61.9,60.2,49.0,38.6,67,49,33,0.00,0.00,10,1,10,0.16
2013-9-29,82.4,62.8,53.8,52.9,41.7,32.2,70,49,20,0.00,0.00,6,0,6,0.00
2013-9-30,86.9,65.6,52.5,46.9,40.5,34.6,53,41,22,0.00,0.00,4,0,8,0.00
2013-10-1,91.9,72.3,63.1,63.5,52.8,45.0,77,54,22,0.00,0.00,6,1,6,0.00
2013-10-2,90.1,74.0,65.8,66.6,55.0,49.0,76,54,26,0.00,0.00,6,1,6,0.00
2013-10-3,82.2,73.0,68.7,61.9,57.7,50.8,70,59,39,0.00,0.00,11,1,11,0.00
2013-10-4,90.0,76.5,68.7,68.3,57.5,49.5,79,56,28,0.00,0.00,10,1,10,0.00
2013-10-5,75.2,67.9,55.2,61.5,53.2,40.6,68,59,48,0.00,0.00,6,1,8,0.04
2013-10-6,55.0,50.9,48.0,41.0,35.2,30.1,66,55,45,0.00,0.00,9,2,11,0.00
2013-10-7,82.8,59.4,49.6,47.5,39.1,31.2,71,51,20,0.00,0.00,8,2,8,0.00
2013-10-8,87.8,64.0,52.0,45.2,36.6,33.0,58,39,18,0.00,0.00,7,0,7,0.00
2013-10-9,85.1,63.6,51.8,41.8,35.1,31.3,56,36,19,0.00,0.00,8,1,8,0.00
2013-10-10,90.1,66.1,54.1,50.3,40.3,34.0,62,41,18,0.00,0.00,5,0,5,0.00
2013-10-11,87.8,68.9,58.6,53.1,43.4,36.7,66,42,19,0.00,0.00,9,1,10,0.00
2013-10-12,86.5,67.4,55.6,51.0,38.7,23.3,61,38,14,0.00,0.00,10,2,10,0.00
2013-10-13,85.1,59.2,46.9,33.6,26.2,16.5,46,31,11,0.00,0.00,6,1,6,0.00
2013-10-14,71.6,56.9,45.9,33.2,26.9,19.6,49,32,22,0.00,0.00,10,2,10,0.00
2013-10-15,78.3,63.6,53.4,56.9,41.1,28.4,77,47,24,0.00,0.00,8,3,8,0.00
2013-10-16,55.2,51.9,50.2,31.6,29.6,27.7,45,42,38,0.00,0.00,11,3,11,0.00
2013-10-17,75.4,55.3,48.0,43.9,32.9,26.6,66,45,21,0.00,0.00,10,1,10,0.00
2013-10-18,55.9,49.3,44.6,32.0,28.4,24.6,55,45,33,0.00,0.00,8,3,9,0.00
2013-10-19,71.8,48.9,39.0,31.6,26.7,20.4,61,45,20,0.00,0.00,11,3,11,0.00
2013-10-20,79.5,58.0,44.8,34.4,27.8,23.0,52,34,15,0.00,0.00,10,2,11,0.00
2013-10-21,68.0,51.9,41.5,30.6,22.7,15.2,39,32,18,0.00,0.00,13,3,13,0.00
2013-10-22,49.5,43.4,39.6,36.3,27.1,18.3,62,53,40,0.00,0.00,12,2,12,0.00
2013-10-23,48.2,42.0,37.6,27.1,22.4,17.1,57,46,31,0.00,0.00,10,2,10,0.00
2013-10-24,42.8,40.4,36.3,25.3,18.2,14.8,54,41,32,0.00,0.00,10,4,11,0.00
2013-10-25,70.3,47.7,31.3,27.9,16.8,9.6,52,30,15,0.00,0.00,9,4,11,0.00
2013-10-26,71.8,50.0,39.4,27.3,18.3,10.6,40,29,15,0.00,0.00,15,3,15,0.00
2013-10-27,73.4,46.4,33.1,30.8,18.0,13.0,47,34,16,0.00,0.00,6,1,8,0.00
2013-10-28,75.6,52.4,38.7,29.0,20.9,16.9,43,31,15,0.00,0.00,6,1,6,0.00
2013-10-29,54.7,50.0,44.2,47.6,31.9,19.3,77,51,28,0.00,0.00,6,2,6,0.00
2013-10-30,64.9,60.0,54.7,60.3,54.8,47.6,86,83,77,0.00,0.00,6,0,6,0.55
2013-10-31,64.2,57.1,47.7,59.6,51.7,40.1,85,82,75,0.00,0.00,10,3,11,0.87
2013-11-1,61.2,50.2,44.2,43.0,34.1,27.0,75,56,35,0.00,0.00,10,3,10,0.00
2013-11-2,63.5,48.9,39.7,32.2,26.7,18.7,58,43,25,0.00,0.00,11,3,11,0.00
2013-11-3,62.1,47.5,35.1,27.6,22.1,18.7,55,38,24,0.00,0.00,13,2,13,0.00
2013-11-4,57.6,52.4,47.3,32.7,27.8,22.9,42,39,36,0.00,0.00,9,3,11,0.00
2013-11-5,59.4,54.9,53.4,51.7,42.9,32.5,88,65,42,0.00,0.00,10,2,10,0.16
2013-11-6,57.9,44.2,30.4,55.0,36.8,20.7,90,76,51,0.00,0.00,13,3,13,0.31
2013-11-7,70.7,40.0,28.0,30.0,18.9,11.3,76,47,14,0.00,0.00,11,2,12,0.00
2013-11-8,61.0,42.5,26.8,24.4,17.3,12.1,60,39,19,30.02,0.00,10,2,11,0.00
2013-11-9,77.2,55.1,45.1,29.2,22.5,14.4,46,30,13,30.26,29.96,13,5,13,0.00
2013-11-10,88.2,48.0,34.3,31.0,16.5,6.3,45,31,10,30.43,30.23,8,2,8,0.00
2013-11-11,61.3,44.0,26.6,30.5,21.1,15.5,65,42,28,30.58,30.14,14,4,14,0.00
2013-11-12,60.4,29.1,17.1,23.9,6.1,-8.8,63,42,16,30.79,30.58,8,2,8,0.00
2013-11-13,65.8,33.7,15.8,16.6,2.9,-2.7,51,30,13,30.67,30.20,10,3,10,0.00
2013-11-14,66.6,44.2,34.0,17.1,7.5,-0.8,31,23,12,30.20,29.96,13,5,13,0.00
2013-11-15,67.8,47.3,39.0,30.3,18.2,6.7,54,32,20,29.99,29.84,8,3,9,0.00
2013-11-16,65.1,55.2,46.0,56.2,43.7,29.8,82,66,38,29.84,29.52,14,4,14,0.00
2013-11-17,72.9,57.3,41.9,62.0,43.0,25.3,90,64,25,29.93,29.25,27,6,27,0.35
2013-11-18,66.2,41.7,27.1,35.9,20.9,8.8,78,48,15,30.29,29.93,13,4,13,0.00
2013-11-19,75.0,41.2,25.2,25.1,14.0,8.5,64,37,11,30.34,30.17,9,3,9,0.00
2013-11-20,42.1,38.0,36.0,36.5,25.7,15.0,89,64,40,30.17,29.96,11,4,13,0.16
2013-11-21,49.3,45.7,40.3,43.1,37.0,30.4,87,72,52,30.26,30.02,9,2,10,0.24
2013-11-22,40.3,33.5,22.1,36.4,26.2,14.7,88,75,54,30.55,30.26,13,3,13,0.00
2013-11-23,55.8,25.6,9.3,16.3,3.5,-10.1,77,42,15,30.76,30.55,13,4,13,0.00
2013-11-24,53.8,23.4,6.6,13.6,-3.4,-11.2,54,33,15,30.76,30.38,7,2,7,0.00
2013-11-25,36.5,30.4,23.5,8.0,4.3,-0.5,43,33,29,30.38,30.11,11,3,11,0.00
2013-11-26,47.3,29.7,18.0,20.0,7.4,-4.4,58,40,22,30.26,30.08,14,4,14,0.00
2013-11-27,59.4,24.0,10.0,14.6,-3.2,-13.2,48,32,14,30.34,30.20,8,3,10,0.00
2013-11-28,57.2,29.8,18.5,15.3,4.0,-2.8,43,34,17,30.49,30.14,10,3,10,0.00
2013-11-29,63.5,31.2,12.9,16.4,5.6,-3.6,54,36,14,30.58,30.32,10,2,10,0.00
2013-11-30,69.3,40.9,29.5,25.1,17.1,10.5,63,41,17,30.32,30.05,10,2,10,0.00
2013-12-1,81.3,42.8,23.4,37.1,15.9,4.5,68,39,12,30.11,29.90,6,1,6,0.00
2013-12-2,63.3,41.3,33.3,32.3,22.8,13.6,70,49,25,29.90,29.64,8,3,8,0.00
2013-12-3,63.0,44.9,33.3,42.9,33.2,23.8,84,65,36,29.64,29.55,8,1,8,0.00
2013-12-4,61.9,48.4,29.7,47.6,37.1,13.3,86,67,42,29.87,29.46,15,4,15,0.00
2013-12-5,29.7,23.4,20.1,13.7,1.6,-2.8,52,39,33,30.32,29.87,13,6,14,0.00
2013-12-6,37.2,17.9,8.2,2.7,-6.5,-15.6,37,33,20,30.61,30.29,11,5,12,0.00
2013-12-7,57.9,19.9,3.9,10.9,-10.1,-19.4,45,27,14,30.73,30.46,10,4,10,0.00
2013-12-8,25.9,21.5,16.0,16.8,5.6,-6.9,74,51,35,30.46,29.99,12,5,13,0.00
2013-12-9,23.4,16.0,7.0,11.4,-0.8,-12.3,61,48,38,30.29,30.02,13,5,13,0.00
2013-12-10,36.9,19.2,3.4,7.6,-3.5,-15.6,43,36,24,30.26,30.11,17,4,17,0.00
2013-12-11,45.9,20.0,1.0,12.4,-6.2,-29.0,45,32,17,30.61,30.23,15,4,15,0.00
2013-12-12,45.0,20.4,1.0,8.7,-8.8,-29.0,40,27,21,30.58,30.20,12,3,13,0.00
2013-12-13,41.2,31.1,23.4,26.7,15.2,3.2,80,54,29,30.20,29.93,6,2,8,0.00
2013-12-14,32.2,32.1,30.2,28.7,28.0,26.7,87,85,80,30.11,29.84,0,0,0,0.00
2013-12-15,30.2,22.9,16.3,26.6,18.2,9.8,87,82,75,30.14,30.02,0,0,0,0.00
2013-12-16,26.4,23.1,19.4,22.5,18.6,14.1,85,83,79,30.11,29.96,0,0,0,0.00
2013-12-17,32.4,27.9,21.4,29.8,24.4,16.7,90,87,82,30.23,30.11,9,2,11,0.12
2013-12-18,35.8,27.3,17.2,33.1,23.4,11.1,91,85,75,30.20,29.81,13,3,13,0.20
2013-12-19,62.1,46.6,35.6,35.9,30.5,23.6,91,56,25,29.84,29.69,10,3,10,0.04
2013-12-20,48.9,37.4,28.0,41.3,31.8,22.7,88,80,64,29.87,29.67,9,2,9,0.08
2013-12-21,32.5,30.5,28.2,29.3,26.6,22.7,89,85,79,29.84,29.58,0,0,0,0.00
2013-12-22,32.5,27.9,17.1,29.5,21.5,4.4,89,77,56,30.26,29.61,0,0,0,0.08
2013-12-23,21.9,11.5,2.5,5.5,-4.8,-16.9,60,48,37,30.55,30.26,0,0,0,0.00
2013-12-24,35.6,12.6,-4.4,9.0,-6.6,-23.1,51,42,31,30.58,30.29,0,0,0,0.04
2013-12-25,31.6,27.2,20.5,22.5,16.5,4.3,76,64,49,30.29,30.17,0,0,0,0.00
2013-12-26,47.8,31.5,17.1,23.6,16.1,4.4,70,54,32,30.29,30.14,10,2,10,0.04
2013-12-27,63.0,40.9,27.7,27.0,22.0,17.7,85,52,23,30.32,30.14,9,4,10,0.00
2013-12-28,71.2,45.9,35.2,25.6,18.8,12.2,53,36,14,30.14,29.84,10,4,13,0.00
2013-12-29,39.4,22.7,6.8,20.0,4.7,-10.1,57,46,37,30.29,29.81,15,6,17,0.00
2013-12-30,27.9,13.5,-0.2,1.5,-8.8,-16.6,45,37,22,30.34,30.14,7,2,8,0.00
2013-12-31,53.2,25.8,10.9,15.0,5.2,-2.6,58,43,18,30.34,30.11,11,3,11,0.00
2014-1-1,32.9,21.6,15.4,11.7,5.9,2.9,61,51,37,30.17,30.08,15,5,15,0.00
2014-1-2,30.2,17.5,2.5,20.9,7.0,-6.3,70,63,56,30.46,30.14,11,4,12,0.00